Year,Month,Day,Hour,Minute,Value (Times are PST for barometer in hPa)
2020,11,13,00,00,995.97
2020,11,13,00,01,995.94
2020,11,13,00,02,995.87
2020,11,13,00,03,995.80
2020,11,13,00,04,995.73
2020,11,13,00,05,995.67
2020,11,13,00,06,995.60
2020,11,13,00,07,995.53
2020,11,13,00,08,995.50
2020,11,13,00,09,995.40
2020,11,13,00,10,995.36
2020,11,13,00,11,995.29
2020,11,13,00,12,995.26
2020,11,13,00,13,995.19
2020,11,13,00,14,995.19
2020,11,13,00,15,995.23
2020,11,13,00,16,995.19
2020,11,13,00,17,995.12
2020,11,13,00,18,995.12
2020,11,13,00,19,995.06
2020,11,13,00,20,995.06
2020,11,13,00,21,994.96
2020,11,13,00,22,994.92
2020,11,13,00,23,994.89
2020,11,13,00,24,994.85
2020,11,13,00,25,994.79
2020,11,13,00,26,994.79
2020,11,13,00,27,994.74
2020,11,13,00,28,994.65
2020,11,13,00,29,994.58
2020,11,13,00,30,994.55
2020,11,13,00,31,994.41
2020,11,13,00,32,994.35
2020,11,13,00,33,994.28
2020,11,13,00,34,994.24
2020,11,13,00,35,994.28
2020,11,13,00,36,994.21
2020,11,13,00,37,994.18
2020,11,13,00,38,994.18
2020,11,13,00,39,994.10
2020,11,13,00,40,993.97
2020,11,13,00,41,993.94
2020,11,13,00,42,993.94
2020,11,13,00,43,993.87
2020,11,13,00,44,993.87
2020,11,13,00,45,993.87
2020,11,13,00,46,993.80
2020,11,13,00,47,993.80
2020,11,13,00,48,993.70
2020,11,13,00,49,993.67
2020,11,13,00,50,993.60
2020,11,13,00,51,993.57
2020,11,13,00,52,993.50
2020,11,13,00,53,993.47
2020,11,13,00,54,993.43
2020,11,13,00,55,993.40
2020,11,13,00,56,993.36
2020,11,13,00,57,993.33
2020,11,13,00,58,993.30
2020,11,13,00,59,993.23
2020,11,13,01,00,993.23
2020,11,13,01,01,993.16
2020,11,13,01,02,993.09
2020,11,13,01,03,993.03
2020,11,13,01,04,992.96
2020,11,13,01,05,992.86
2020,11,13,01,06,992.79
2020,11,13,01,07,992.82
2020,11,13,01,08,992.79
2020,11,13,01,09,992.75
2020,11,13,01,10,992.69
2020,11,13,01,11,992.62
2020,11,13,01,12,992.58
2020,11,13,01,13,992.48
2020,11,13,01,14,992.45
2020,11,13,01,15,992.38
2020,11,13,01,16,992.35
2020,11,13,01,17,992.31
2020,11,13,01,18,992.28
2020,11,13,01,19,992.21
2020,11,13,01,20,992.18
2020,11,13,01,21,992.11
2020,11,13,01,22,992.08
2020,11,13,01,23,992.01
2020,11,13,01,24,991.98
2020,11,13,01,25,991.91
2020,11,13,01,26,991.84
2020,11,13,01,27,991.81
2020,11,13,01,28,991.77
2020,11,13,01,29,991.70
2020,11,13,01,30,991.67
2020,11,13,01,31,991.64
2020,11,13,01,32,991.60
2020,11,13,01,33,991.50
2020,11,13,01,34,991.50
2020,11,13,01,35,991.43
2020,11,13,01,36,991.40
2020,11,13,01,37,991.37
2020,11,13,01,38,991.37
2020,11,13,01,39,991.32
2020,11,13,01,40,991.20
2020,11,13,01,41,991.16
2020,11,13,01,42,991.13
2020,11,13,01,43,991.06
2020,11,13,01,44,991.09
2020,11,13,01,45,991.03
2020,11,13,01,46,991.03
2020,11,13,01,47,990.89
2020,11,13,01,48,990.82
2020,11,13,01,49,990.79
2020,11,13,01,50,990.76
2020,11,13,01,51,990.69
2020,11,13,01,52,990.69
2020,11,13,01,53,990.62
2020,11,13,01,54,990.62
2020,11,13,01,55,990.59
2020,11,13,01,56,990.52
2020,11,13,01,57,990.52
2020,11,13,01,58,990.52
2020,11,13,01,59,990.49
2020,11,13,02,00,990.45
2020,11,13,02,01,990.35
2020,11,13,02,02,990.35
2020,11,13,02,03,990.18
2020,11,13,02,04,990.08
2020,11,13,02,05,990.04
2020,11,13,02,06,989.98
2020,11,13,02,07,989.94
2020,11,13,02,08,989.91
2020,11,13,02,09,989.84
2020,11,13,02,10,989.84
2020,11,13,02,11,989.84
2020,11,13,02,12,989.81
2020,11,13,02,13,989.74
2020,11,13,02,14,989.74
2020,11,13,02,15,989.67
2020,11,13,02,16,989.74
2020,11,13,02,17,989.67
2020,11,13,02,18,989.67
2020,11,13,02,19,989.64
2020,11,13,02,20,989.67
2020,11,13,02,21,989.64
2020,11,13,02,22,989.64
2020,11,13,02,23,989.60
2020,11,13,02,24,989.57
2020,11,13,02,25,989.57
2020,11,13,02,26,989.50
2020,11,13,02,27,989.54
2020,11,13,02,28,989.50
2020,11,13,02,29,989.54
2020,11,13,02,30,989.54
2020,11,13,02,31,989.54
2020,11,13,02,32,989.47
2020,11,13,02,33,989.47
2020,11,13,02,34,989.44
2020,11,13,02,35,989.40
2020,11,13,02,36,989.33
2020,11,13,02,37,989.23
2020,11,13,02,38,989.23
2020,11,13,02,39,989.16
2020,11,13,02,40,989.13
2020,11,13,02,41,989.06
2020,11,13,02,42,989.00
2020,11,13,02,43,989.03
2020,11,13,02,44,988.96
2020,11,13,02,45,988.96
2020,11,13,02,46,988.86
2020,11,13,02,47,988.79
2020,11,13,02,48,988.79
2020,11,13,02,49,988.76
2020,11,13,02,50,988.72
2020,11,13,02,51,988.69
2020,11,13,02,52,988.66
2020,11,13,02,53,988.55
2020,11,13,02,54,988.55
2020,11,13,02,55,988.55
2020,11,13,02,56,988.49
2020,11,13,02,57,988.49
2020,11,13,02,58,988.42
2020,11,13,02,59,988.28
2020,11,13,03,00,988.25
2020,11,13,03,01,988.22
2020,11,13,03,02,988.15
2020,11,13,03,03,988.15
2020,11,13,03,04,988.08
2020,11,13,03,05,987.98
2020,11,13,03,06,987.98
2020,11,13,03,07,987.98
2020,11,13,03,08,987.95
2020,11,13,03,09,987.91
2020,11,13,03,10,987.95
2020,11,13,03,11,987.95
2020,11,13,03,12,987.95
2020,11,13,03,13,987.91
2020,11,13,03,14,987.84
2020,11,13,03,15,987.84
2020,11,13,03,16,987.74
2020,11,13,03,17,987.71
2020,11,13,03,18,987.71
2020,11,13,03,19,987.64
2020,11,13,03,20,987.61
2020,11,13,03,21,987.61
2020,11,13,03,22,987.61
2020,11,13,03,23,987.54
2020,11,13,03,24,987.47
2020,11,13,03,25,987.44
2020,11,13,03,26,987.47
2020,11,13,03,27,987.47
2020,11,13,03,28,987.40
2020,11,13,03,29,987.40
2020,11,13,03,30,987.34
2020,11,13,03,31,987.28
2020,11,13,03,32,987.27
2020,11,13,03,33,987.20
2020,11,13,03,34,987.17
2020,11,13,03,35,987.13
2020,11,13,03,36,987.17
2020,11,13,03,37,987.20
2020,11,13,03,38,987.17
2020,11,13,03,39,987.10
2020,11,13,03,40,987.03
2020,11,13,03,41,987.00
2020,11,13,03,42,986.96
2020,11,13,03,43,986.93
2020,11,13,03,44,986.80
2020,11,13,03,45,986.79
2020,11,13,03,46,986.73
2020,11,13,03,47,986.66
2020,11,13,03,48,986.56
2020,11,13,03,49,986.56
2020,11,13,03,50,986.49
2020,11,13,03,51,986.46
2020,11,13,03,52,986.52
2020,11,13,03,53,986.56
2020,11,13,03,54,986.56
2020,11,13,03,55,986.56
2020,11,13,03,56,986.47
2020,11,13,03,57,986.46
2020,11,13,03,58,986.35
2020,11,13,03,59,986.35
2020,11,13,04,00,986.26
2020,11,13,04,01,986.19
2020,11,13,04,02,986.15
2020,11,13,04,03,986.08
2020,11,13,04,04,985.96
2020,11,13,04,05,985.91
2020,11,13,04,06,985.91
2020,11,13,04,07,985.91
2020,11,13,04,08,985.91
2020,11,13,04,09,985.85
2020,11,13,04,10,985.81
2020,11,13,04,11,985.85
2020,11,13,04,12,985.81
2020,11,13,04,13,985.85
2020,11,13,04,14,985.85
2020,11,13,04,15,985.79
2020,11,13,04,16,985.81
2020,11,13,04,17,985.74
2020,11,13,04,18,985.71
2020,11,13,04,19,985.71
2020,11,13,04,20,985.68
2020,11,13,04,21,985.74
2020,11,13,04,22,985.74
2020,11,13,04,23,985.84
2020,11,13,04,24,985.88
2020,11,13,04,25,985.88
2020,11,13,04,26,985.88
2020,11,13,04,27,985.85
2020,11,13,04,28,985.85
2020,11,13,04,29,985.85
2020,11,13,04,30,985.85
2020,11,13,04,31,985.88
2020,11,13,04,32,985.95
2020,11,13,04,33,985.91
2020,11,13,04,34,985.82
2020,11,13,04,35,985.74
2020,11,13,04,36,985.74
2020,11,13,04,37,985.78
2020,11,13,04,38,985.85
2020,11,13,04,39,985.81
2020,11,13,04,40,985.81
2020,11,13,04,41,985.91
2020,11,13,04,42,985.79
2020,11,13,04,43,985.74
2020,11,13,04,44,985.68
2020,11,13,04,45,985.71
2020,11,13,04,46,985.71
2020,11,13,04,47,985.74
2020,11,13,04,48,985.78
2020,11,13,04,49,985.68
2020,11,13,04,50,985.71
2020,11,13,04,51,985.74
2020,11,13,04,52,985.78
2020,11,13,04,53,985.78
2020,11,13,04,54,985.78
2020,11,13,04,55,985.78
2020,11,13,04,56,985.78
2020,11,13,04,57,985.81
2020,11,13,04,58,985.81
2020,11,13,04,59,985.78
2020,11,13,05,00,985.74
2020,11,13,05,01,985.78
2020,11,13,05,02,985.81
2020,11,13,05,03,985.78
2020,11,13,05,04,985.81
2020,11,13,05,05,985.85
2020,11,13,05,06,985.85
2020,11,13,05,07,985.85
2020,11,13,05,08,985.88
2020,11,13,05,09,985.97
2020,11,13,05,10,985.91
2020,11,13,05,11,986.02
2020,11,13,05,12,986.02
2020,11,13,05,13,986.02
2020,11,13,05,14,986.12
2020,11,13,05,15,986.18
2020,11,13,05,16,986.15
2020,11,13,05,17,986.03
2020,11,13,05,18,986.02
2020,11,13,05,19,985.95
2020,11,13,05,20,985.91
2020,11,13,05,21,985.91
2020,11,13,05,22,985.82
2020,11,13,05,23,985.78
2020,11,13,05,24,985.78
2020,11,13,05,25,985.74
2020,11,13,05,26,985.84
2020,11,13,05,27,985.88
2020,11,13,05,28,985.88
2020,11,13,05,29,985.88
2020,11,13,05,30,985.74
2020,11,13,05,31,985.65
2020,11,13,05,32,985.64
2020,11,13,05,33,985.54
2020,11,13,05,34,985.47
2020,11,13,05,35,985.31
2020,11,13,05,36,985.17
2020,11,13,05,37,985.10
2020,11,13,05,38,985.00
2020,11,13,05,39,984.97
2020,11,13,05,40,984.90
2020,11,13,05,41,984.77
2020,11,13,05,42,984.80
2020,11,13,05,43,984.80
2020,11,13,05,44,984.80
2020,11,13,05,45,984.80
2020,11,13,05,46,984.83
2020,11,13,05,47,984.80
2020,11,13,05,48,984.86
2020,11,13,05,49,984.86
2020,11,13,05,50,984.90
2020,11,13,05,51,984.90
2020,11,13,05,52,984.93
2020,11,13,05,53,985.00
2020,11,13,05,54,984.97
2020,11,13,05,55,985.09
2020,11,13,05,56,985.07
2020,11,13,05,57,985.07
2020,11,13,05,58,985.07
2020,11,13,05,59,985.00
2020,11,13,06,00,985.09
2020,11,13,06,01,985.10
2020,11,13,06,02,985.17
2020,11,13,06,03,985.13
2020,11,13,06,04,985.13
2020,11,13,06,05,985.17
2020,11,13,06,06,985.17
2020,11,13,06,07,985.13
2020,11,13,06,08,985.10
2020,11,13,06,09,985.13
2020,11,13,06,10,985.10
2020,11,13,06,11,985.10
2020,11,13,06,12,985.13
2020,11,13,06,13,985.13
2020,11,13,06,14,985.13
2020,11,13,06,15,985.10
2020,11,13,06,16,985.07
2020,11,13,06,17,985.10
2020,11,13,06,18,985.03
2020,11,13,06,19,985.10
2020,11,13,06,20,985.10
2020,11,13,06,21,985.13
2020,11,13,06,22,985.17
2020,11,13,06,23,985.17
2020,11,13,06,24,985.20
2020,11,13,06,25,985.20
2020,11,13,06,26,985.17
2020,11,13,06,27,985.17
2020,11,13,06,28,985.17
2020,11,13,06,29,985.13
2020,11,13,06,30,985.10
2020,11,13,06,31,985.07
2020,11,13,06,32,985.10
2020,11,13,06,33,985.13
2020,11,13,06,34,985.20
2020,11,13,06,35,985.26
2020,11,13,06,36,985.24
2020,11,13,06,37,985.24
2020,11,13,06,38,985.24
2020,11,13,06,39,985.34
2020,11,13,06,40,985.34
2020,11,13,06,41,985.41
2020,11,13,06,42,985.34
2020,11,13,06,43,985.34
2020,11,13,06,44,985.34
2020,11,13,06,45,985.37
2020,11,13,06,46,985.37
2020,11,13,06,47,985.34
2020,11,13,06,48,985.34
2020,11,13,06,49,985.30
2020,11,13,06,50,985.34
2020,11,13,06,51,985.30
2020,11,13,06,52,985.30
2020,11,13,06,53,985.30
2020,11,13,06,54,985.34
2020,11,13,06,55,985.30
2020,11,13,06,56,985.34
2020,11,13,06,57,985.27
2020,11,13,06,58,985.24
2020,11,13,06,59,985.24
2020,11,13,07,00,985.24
2020,11,13,07,01,985.18
2020,11,13,07,02,985.24
2020,11,13,07,03,985.24
2020,11,13,07,04,985.27
2020,11,13,07,05,985.30
2020,11,13,07,06,985.27
2020,11,13,07,07,985.24
2020,11,13,07,08,985.30
2020,11,13,07,09,985.30
2020,11,13,07,10,985.30
2020,11,13,07,11,985.30
2020,11,13,07,12,985.30
2020,11,13,07,13,985.30
2020,11,13,07,14,985.34
2020,11,13,07,15,985.41
2020,11,13,07,16,985.47
2020,11,13,07,17,985.54
2020,11,13,07,18,985.54
2020,11,13,07,19,985.61
2020,11,13,07,20,985.57
2020,11,13,07,21,985.64
2020,11,13,07,22,985.64
2020,11,13,07,23,985.64
2020,11,13,07,24,985.68
2020,11,13,07,25,985.64
2020,11,13,07,26,985.71
2020,11,13,07,27,985.68
2020,11,13,07,28,985.64
2020,11,13,07,29,985.64
2020,11,13,07,30,985.68
2020,11,13,07,31,985.71
2020,11,13,07,32,985.71
2020,11,13,07,33,985.68
2020,11,13,07,34,985.71
2020,11,13,07,35,985.81
2020,11,13,07,36,985.85
2020,11,13,07,37,985.85
2020,11,13,07,38,985.91
2020,11,13,07,39,985.88
2020,11,13,07,40,985.98
2020,11,13,07,41,986.02
2020,11,13,07,42,986.08
2020,11,13,07,43,985.98
2020,11,13,07,44,986.02
2020,11,13,07,45,985.95
2020,11,13,07,46,985.95
2020,11,13,07,47,985.95
2020,11,13,07,48,985.98
2020,11,13,07,49,985.95
2020,11,13,07,50,985.91
2020,11,13,07,51,985.95
2020,11,13,07,52,985.95
2020,11,13,07,53,985.95
2020,11,13,07,54,986.01
2020,11,13,07,55,985.98
2020,11,13,07,56,985.98
2020,11,13,07,57,986.02
2020,11,13,07,58,986.05
2020,11,13,07,59,986.05
2020,11,13,08,00,985.98
2020,11,13,08,01,986.02
2020,11,13,08,02,985.98
2020,11,13,08,03,986.02
2020,11,13,08,04,985.98
2020,11,13,08,05,986.05
2020,11,13,08,06,986.02
2020,11,13,08,07,985.98
2020,11,13,08,08,985.98
2020,11,13,08,09,985.98
2020,11,13,08,10,985.98
2020,11,13,08,11,986.02
2020,11,13,08,12,986.02
2020,11,13,08,13,985.95
2020,11,13,08,14,985.95
2020,11,13,08,15,985.95
2020,11,13,08,16,986.05
2020,11,13,08,17,986.05
2020,11,13,08,18,986.05
2020,11,13,08,19,986.02
2020,11,13,08,20,986.08
2020,11,13,08,21,986.05
2020,11,13,08,22,986.02
2020,11,13,08,23,986.08
2020,11,13,08,24,986.02
2020,11,13,08,25,986.08
2020,11,13,08,26,986.08
2020,11,13,08,27,986.12
2020,11,13,08,28,986.08
2020,11,13,08,29,986.05
2020,11,13,08,30,986.05
2020,11,13,08,31,986.02
2020,11,13,08,32,986.05
2020,11,13,08,33,986.02
2020,11,13,08,34,986.05
2020,11,13,08,35,986.02
2020,11,13,08,36,986.02
2020,11,13,08,37,986.12
2020,11,13,08,38,986.08
2020,11,13,08,39,986.12
2020,11,13,08,40,986.18
2020,11,13,08,41,986.25
2020,11,13,08,42,986.29
2020,11,13,08,43,986.25
2020,11,13,08,44,986.18
2020,11,13,08,45,986.25
2020,11,13,08,46,986.22
2020,11,13,08,47,986.29
2020,11,13,08,48,986.29
2020,11,13,08,49,986.25
2020,11,13,08,50,986.25
2020,11,13,08,51,986.25
2020,11,13,08,52,986.29
2020,11,13,08,53,986.22
2020,11,13,08,54,986.25
2020,11,13,08,55,986.25
2020,11,13,08,56,986.29
2020,11,13,08,57,986.25
2020,11,13,08,58,986.41
2020,11,13,08,59,986.35
2020,11,13,09,00,986.29
2020,11,13,09,01,986.25
2020,11,13,09,02,986.29
2020,11,13,09,03,986.32
2020,11,13,09,04,986.23
2020,11,13,09,05,986.29
2020,11,13,09,06,986.35
2020,11,13,09,07,986.32
2020,11,13,09,08,986.42
2020,11,13,09,09,986.39
2020,11,13,09,10,986.29
2020,11,13,09,11,986.23
2020,11,13,09,12,986.32
2020,11,13,09,13,986.29
2020,11,13,09,14,986.32
2020,11,13,09,15,986.32
2020,11,13,09,16,986.29
2020,11,13,09,17,986.18
2020,11,13,09,18,986.25
2020,11,13,09,19,986.35
2020,11,13,09,20,986.29
2020,11,13,09,21,986.34
2020,11,13,09,22,986.39
2020,11,13,09,23,986.42
2020,11,13,09,24,986.39
2020,11,13,09,25,986.42
2020,11,13,09,26,986.23
2020,11,13,09,27,986.41
2020,11,13,09,28,986.49
2020,11,13,09,29,986.49
2020,11,13,09,30,986.46
2020,11,13,09,31,986.59
2020,11,13,09,32,986.59
2020,11,13,09,33,986.65
2020,11,13,09,34,986.66
2020,11,13,09,35,986.62
2020,11,13,09,36,986.62
2020,11,13,09,37,986.66
2020,11,13,09,38,986.73
2020,11,13,09,39,986.69
2020,11,13,09,40,986.83
2020,11,13,09,41,986.86
2020,11,13,09,42,986.79
2020,11,13,09,43,986.99
2020,11,13,09,44,986.84
2020,11,13,09,45,986.79
2020,11,13,09,46,986.79
2020,11,13,09,47,986.90
2020,11,13,09,48,986.90
2020,11,13,09,49,986.83
2020,11,13,09,50,986.90
2020,11,13,09,51,986.96
2020,11,13,09,52,987.03
2020,11,13,09,53,986.87
2020,11,13,09,54,987.12
2020,11,13,09,55,987.17
2020,11,13,09,56,987.07
2020,11,13,09,57,987.06
2020,11,13,09,58,987.06
2020,11,13,09,59,987.13
2020,11,13,10,00,987.17
2020,11,13,10,01,987.01
2020,11,13,10,02,987.06
2020,11,13,10,03,987.10
2020,11,13,10,04,987.16
2020,11,13,10,05,987.29
2020,11,13,10,06,987.27
2020,11,13,10,07,987.33
2020,11,13,10,08,987.18
2020,11,13,10,09,987.33
2020,11,13,10,10,987.37
2020,11,13,10,11,987.47
2020,11,13,10,12,987.30
2020,11,13,10,13,987.46
2020,11,13,10,14,987.44
2020,11,13,10,15,987.40
2020,11,13,10,16,987.44
2020,11,13,10,17,987.51
2020,11,13,10,18,987.47
2020,11,13,10,19,987.65
2020,11,13,10,20,987.71
2020,11,13,10,21,987.74
2020,11,13,10,22,987.78
2020,11,13,10,23,987.67
2020,11,13,10,24,987.88
2020,11,13,10,25,987.81
2020,11,13,10,26,988.07
2020,11,13,10,27,987.96
2020,11,13,10,28,987.91
2020,11,13,10,29,987.95
2020,11,13,10,30,987.91
2020,11,13,10,31,988.11
2020,11,13,10,32,988.18
2020,11,13,10,33,988.18
2020,11,13,10,34,988.22
2020,11,13,10,35,988.22
2020,11,13,10,36,988.25
2020,11,13,10,37,988.22
2020,11,13,10,38,988.32
2020,11,13,10,39,988.41
2020,11,13,10,40,988.49
2020,11,13,10,41,988.39
2020,11,13,10,42,988.49
2020,11,13,10,43,988.58
2020,11,13,10,44,988.69
2020,11,13,10,45,988.79
2020,11,13,10,46,988.66
2020,11,13,10,47,988.76
2020,11,13,10,48,988.83
2020,11,13,10,49,988.99
2020,11,13,10,50,988.89
2020,11,13,10,51,988.99
2020,11,13,10,52,989.15
2020,11,13,10,53,989.16
2020,11,13,10,54,989.01
2020,11,13,10,55,989.06
2020,11,13,10,56,989.19
2020,11,13,10,57,989.23
2020,11,13,10,58,989.33
2020,11,13,10,59,989.27
2020,11,13,11,00,989.27
2020,11,13,11,01,989.30
2020,11,13,11,02,989.50
2020,11,13,11,03,989.44
2020,11,13,11,04,989.57
2020,11,13,11,05,989.50
2020,11,13,11,06,989.38
2020,11,13,11,07,989.53
2020,11,13,11,08,989.57
2020,11,13,11,09,989.57
2020,11,13,11,10,989.60
2020,11,13,11,11,989.67
2020,11,13,11,12,989.60
2020,11,13,11,13,989.64
2020,11,13,11,14,989.67
2020,11,13,11,15,989.94
2020,11,13,11,16,989.77
2020,11,13,11,17,989.81
2020,11,13,11,18,989.88
2020,11,13,11,19,989.88
2020,11,13,11,20,989.94
2020,11,13,11,21,989.94
2020,11,13,11,22,990.08
2020,11,13,11,23,990.11
2020,11,13,11,24,990.04
2020,11,13,11,25,990.11
2020,11,13,11,26,990.15
2020,11,13,11,27,990.04
2020,11,13,11,28,990.08
2020,11,13,11,29,990.18
2020,11,13,11,30,990.34
2020,11,13,11,31,990.35
2020,11,13,11,32,990.28
2020,11,13,11,33,990.25
2020,11,13,11,34,990.52
2020,11,13,11,35,990.45
2020,11,13,11,36,990.52
2020,11,13,11,37,990.55
2020,11,13,11,38,990.52
2020,11,13,11,39,990.64
2020,11,13,11,40,990.36
2020,11,13,11,41,990.52
2020,11,13,11,42,990.49
2020,11,13,11,43,990.55
2020,11,13,11,44,990.71
2020,11,13,11,45,990.62
2020,11,13,11,46,990.65
2020,11,13,11,47,990.62
2020,11,13,11,48,990.62
2020,11,13,11,49,990.59
2020,11,13,11,50,990.78
2020,11,13,11,51,990.65
2020,11,13,11,52,990.65
2020,11,13,11,53,990.71
2020,11,13,11,54,990.76
2020,11,13,11,55,990.82
2020,11,13,11,56,990.72
2020,11,13,11,57,990.88
2020,11,13,11,58,990.89
2020,11,13,11,59,991.08
2020,11,13,12,00,991.06
2020,11,13,12,01,991.06
2020,11,13,12,02,990.94
2020,11,13,12,03,991.09
2020,11,13,12,04,991.09
2020,11,13,12,05,991.13
2020,11,13,12,06,991.13
2020,11,13,12,07,991.13
2020,11,13,12,08,991.16
2020,11,13,12,09,991.26
2020,11,13,12,10,991.23
2020,11,13,12,11,991.23
2020,11,13,12,12,991.36
2020,11,13,12,13,991.30
2020,11,13,12,14,991.46
2020,11,13,12,15,991.43
2020,11,13,12,16,991.50
2020,11,13,12,17,991.50
2020,11,13,12,18,991.50
2020,11,13,12,19,991.57
2020,11,13,12,20,991.64
2020,11,13,12,21,991.53
2020,11,13,12,22,991.60
2020,11,13,12,23,991.73
2020,11,13,12,24,991.74
2020,11,13,12,25,991.74
2020,11,13,12,26,991.84
2020,11,13,12,27,991.91
2020,11,13,12,28,991.87
2020,11,13,12,29,991.87
2020,11,13,12,30,991.87
2020,11,13,12,31,991.81
2020,11,13,12,32,991.98
2020,11,13,12,33,991.98
2020,11,13,12,34,992.04
2020,11,13,12,35,992.17
2020,11,13,12,36,992.14
2020,11,13,12,37,992.11
2020,11,13,12,38,992.11
2020,11,13,12,39,992.04
2020,11,13,12,40,992.17
2020,11,13,12,41,992.25
2020,11,13,12,42,992.25
2020,11,13,12,43,992.38
2020,11,13,12,44,992.35
2020,11,13,12,45,992.28
2020,11,13,12,46,992.38
2020,11,13,12,47,992.35
2020,11,13,12,48,992.52
2020,11,13,12,49,992.45
2020,11,13,12,50,992.42
2020,11,13,12,51,992.31
2020,11,13,12,52,992.38
2020,11,13,12,53,992.38
2020,11,13,12,54,992.38
2020,11,13,12,55,992.45
2020,11,13,12,56,992.58
2020,11,13,12,57,992.58
2020,11,13,12,58,992.62
2020,11,13,12,59,992.55
2020,11,13,13,00,992.58
2020,11,13,13,01,992.68
2020,11,13,13,02,992.79
2020,11,13,13,03,992.75
2020,11,13,13,04,992.75
2020,11,13,13,05,992.82
2020,11,13,13,06,992.75
2020,11,13,13,07,992.89
2020,11,13,13,08,992.92
2020,11,13,13,09,992.82
2020,11,13,13,10,992.99
2020,11,13,13,11,992.89
2020,11,13,13,12,993.02
2020,11,13,13,13,993.06
2020,11,13,13,14,993.03
2020,11,13,13,15,993.03
2020,11,13,13,16,993.25
2020,11,13,13,17,993.26
2020,11,13,13,18,993.16
2020,11,13,13,19,993.29
2020,11,13,13,20,993.23
2020,11,13,13,21,993.33
2020,11,13,13,22,993.26
2020,11,13,13,23,993.36
2020,11,13,13,24,993.30
2020,11,13,13,25,993.36
2020,11,13,13,26,993.33
2020,11,13,13,27,993.43
2020,11,13,13,28,993.33
2020,11,13,13,29,993.33
2020,11,13,13,30,993.43
2020,11,13,13,31,993.50
2020,11,13,13,32,993.53
2020,11,13,13,33,993.50
2020,11,13,13,34,993.53
2020,11,13,13,35,993.60
2020,11,13,13,36,993.70
2020,11,13,13,37,993.70
2020,11,13,13,38,993.67
2020,11,13,13,39,993.77
2020,11,13,13,40,993.87
2020,11,13,13,41,993.84
2020,11,13,13,42,993.87
2020,11,13,13,43,993.97
2020,11,13,13,44,994.07
2020,11,13,13,45,993.94
2020,11,13,13,46,994.01
2020,11,13,13,47,994.07
2020,11,13,13,48,994.07
2020,11,13,13,49,994.31
2020,11,13,13,50,994.18
2020,11,13,13,51,994.37
2020,11,13,13,52,994.35
2020,11,13,13,53,994.38
2020,11,13,13,54,994.38
2020,11,13,13,55,994.47
2020,11,13,13,56,994.45
2020,11,13,13,57,994.41
2020,11,13,13,58,994.41
2020,11,13,13,59,994.52
2020,11,13,14,00,994.38
2020,11,13,14,01,994.45
2020,11,13,14,02,994.48
2020,11,13,14,03,994.48
2020,11,13,14,04,994.52
2020,11,13,14,05,994.55
2020,11,13,14,06,994.58
2020,11,13,14,07,994.55
2020,11,13,14,08,994.68
2020,11,13,14,09,994.65
2020,11,13,14,10,994.65
2020,11,13,14,11,994.62
2020,11,13,14,12,994.65
2020,11,13,14,13,994.72
2020,11,13,14,14,994.82
2020,11,13,14,15,994.82
2020,11,13,14,16,994.85
2020,11,13,14,17,994.82
2020,11,13,14,18,994.92
2020,11,13,14,19,994.99
2020,11,13,14,20,994.99
2020,11,13,14,21,994.99
2020,11,13,14,22,994.99
2020,11,13,14,23,995.06
2020,11,13,14,24,995.09
2020,11,13,14,25,995.09
2020,11,13,14,26,995.16
2020,11,13,14,27,995.19
2020,11,13,14,28,995.23
2020,11,13,14,29,995.26
2020,11,13,14,30,995.26
2020,11,13,14,31,995.29
2020,11,13,14,32,995.29
2020,11,13,14,33,995.23
2020,11,13,14,34,995.39
2020,11,13,14,35,995.29
2020,11,13,14,36,995.33
2020,11,13,14,37,995.36
2020,11,13,14,38,995.43
2020,11,13,14,39,995.46
2020,11,13,14,40,995.43
2020,11,13,14,41,995.53
2020,11,13,14,42,995.53
2020,11,13,14,43,995.62
2020,11,13,14,44,995.60
2020,11,13,14,45,995.70
2020,11,13,14,46,995.63
2020,11,13,14,47,995.63
2020,11,13,14,48,995.63
2020,11,13,14,49,995.67
2020,11,13,14,50,995.77
2020,11,13,14,51,995.80
2020,11,13,14,52,995.87
2020,11,13,14,53,995.87
2020,11,13,14,54,995.84
2020,11,13,14,55,995.73
2020,11,13,14,56,995.87
2020,11,13,14,57,995.90
2020,11,13,14,58,995.90
2020,11,13,14,59,996.01
2020,11,13,15,00,996.04
2020,11,13,15,01,996.07
2020,11,13,15,02,996.07
2020,11,13,15,03,996.11
2020,11,13,15,04,996.24
2020,11,13,15,05,996.24
2020,11,13,15,06,996.24
2020,11,13,15,07,996.24
2020,11,13,15,08,996.24
2020,11,13,15,09,996.24
2020,11,13,15,10,996.28
2020,11,13,15,11,996.24
2020,11,13,15,12,996.34
2020,11,13,15,13,996.31
2020,11,13,15,14,996.31
2020,11,13,15,15,996.38
2020,11,13,15,16,996.38
2020,11,13,15,17,996.38
2020,11,13,15,18,996.41
2020,11,13,15,19,996.41
2020,11,13,15,20,996.48
2020,11,13,15,21,996.55
2020,11,13,15,22,996.58
2020,11,13,15,23,996.65
2020,11,13,15,24,996.65
2020,11,13,15,25,996.68
2020,11,13,15,26,996.65
2020,11,13,15,27,996.72
2020,11,13,15,28,996.82
2020,11,13,15,29,996.82
2020,11,13,15,30,996.89
2020,11,13,15,31,996.92
2020,11,13,15,32,997.02
2020,11,13,15,33,997.02
2020,11,13,15,34,996.95
2020,11,13,15,35,996.95
2020,11,13,15,36,996.99
2020,11,13,15,37,997.02
2020,11,13,15,38,997.12
2020,11,13,15,39,997.16
2020,11,13,15,40,997.22
2020,11,13,15,41,997.29
2020,11,13,15,42,997.33
2020,11,13,15,43,997.33
2020,11,13,15,44,997.39
2020,11,13,15,45,997.36
2020,11,13,15,46,997.39
2020,11,13,15,47,997.39
2020,11,13,15,48,997.36
2020,11,13,15,49,997.29
2020,11,13,15,50,997.33
2020,11,13,15,51,997.29
2020,11,13,15,52,997.22
2020,11,13,15,53,997.38
2020,11,13,15,54,997.46
2020,11,13,15,55,997.46
2020,11,13,15,56,997.46
2020,11,13,15,57,997.53
2020,11,13,15,58,997.46
2020,11,13,15,59,997.53
2020,11,13,16,00,997.50
2020,11,13,16,01,997.69
2020,11,13,16,02,997.70
2020,11,13,16,03,997.66
2020,11,13,16,04,997.66
2020,11,13,16,05,997.66
2020,11,13,16,06,997.73
2020,11,13,16,07,997.80
2020,11,13,16,08,997.83
2020,11,13,16,09,997.87
2020,11,13,16,10,997.97
2020,11,13,16,11,997.94
2020,11,13,16,12,997.87
2020,11,13,16,13,997.94
2020,11,13,16,14,998.04
2020,11,13,16,15,998.10
2020,11,13,16,16,998.17
2020,11,13,16,17,998.21
2020,11,13,16,18,998.31
2020,11,13,16,19,998.34
2020,11,13,16,20,998.31
2020,11,13,16,21,998.34
2020,11,13,16,22,998.41
2020,11,13,16,23,998.44
2020,11,13,16,24,998.51
2020,11,13,16,25,998.48
2020,11,13,16,26,998.48
2020,11,13,16,27,998.44
2020,11,13,16,28,998.44
2020,11,13,16,29,998.54
2020,11,13,16,30,998.51
2020,11,13,16,31,998.61
2020,11,13,16,32,998.58
2020,11,13,16,33,998.61
2020,11,13,16,34,998.58
2020,11,13,16,35,998.58
2020,11,13,16,36,998.65